Regional Weather Roundup
Issued by NWS

Home | Current Version | Previous Version | Graphics & Text | Print | Product List | Glossary On
Versions: 1 2 3 4 5 6 7 8 9 10 11 12 13 14 15 16 17 18 19 20 21 22 23 24 25 26 27 28 29 30 31 32 33 34 35 36 37 38 39 40 41 42 43 44 45 46 47 48 49 50
161
ASUS43 KMPX 310201
RWRMN
WEATHER ROUNDUP FOR MINNESOTA
NATIONAL WEATHER SERVICE TWIN CITIES/CHANHASSEN MN
900 PM CDT TUE AUG 30 2016


NOTE: "FAIR" INDICATES FEW OR NO CLOUDS BELOW 12,000 FEET WITH NO
SIGNIFICANT WEATHER AND/OR OBSTRUCTIONS TO VISIBILITY. N/A MEANS
CURRENT SKY AND/OR WEATHER CONDITIONS ARE NOT AVAILABLE.

MNZ060>063-068>070-310300-
   Twin Cities Metro

CITY           SKY/WX    TMP DP  RH WIND       PRES   REMARKS
TWIN CITIES    PTCLDY    69  53  56 NW5       30.16R
ST PAUL        CLEAR     69  53  56 NW5       30.16R
CRYSTAL        CLEAR     65  54  67 CALM      30.15R
BLAINE         CLEAR     66  55  68 CALM      30.16
LAKEVILLE      CLEAR     64  55  72 NW3       30.17R
EDEN PRAIRIE   CLEAR     69  56  62 NW5       30.16R
LAKEVILLE      CLEAR     64  55  72 NW3       30.17R
SOUTH ST PAUL  CLEAR     70  51  51 CALM      30.16R
LAKE ELMO      FAIR      64  59  82 CALM      30.17R
$$
MNZ001>005-007-008-013>017-022>024-027-028-310300-
   Northwest Minnesota

CITY           SKY/WX    TMP DP  RH WIND       PRES   REMARKS
BEMIDJI        CLEAR     61  54  78 W3        30.21R
HALLOCK        CLOUDY    63  50  63 N5        30.20R
ROSEAU         CLEAR     63  54  72 CALM      30.20S
WARROAD        CLEAR     61  54  77 CALM      30.20S
THIEF RVR FALL CLEAR     65  53  65 CALM      30.21R
CROOKSTON      CLEAR     68  54  60 CALM      30.20R
FOSSTON        CLEAR     57  52  82 CALM      30.22R
DETROIT LAKES  CLEAR     66  57  72 CALM      30.23R
MOORHEAD       CLOUDY    68  55  64 CALM      30.21R
MAHNOMEN       FAIR      65  57  77 CALM      30.21R
$$
MNZ006-009>011-018-025>026-310300-
   North Central Minnesota

CITY           SKY/WX    TMP DP  RH WIND       PRES   REMARKS
BAUDETTE       CLEAR     58  53  84 NW5       30.19R
FLAG ISLAND    CLEAR     66  48  52 N3        30.19R
INTL FALLS     CLEAR     51  49  92 CALM      30.18R
WASKISH        CLEAR     59  54  82 CALM      30.20R
BIG FORK       CLEAR     55  54  94 CALM      30.20R
LONGVILLE      CLEAR     57  55  94 CALM      30.20R
GRAND RAPIDS   CLEAR     57  55  93 CALM      30.20S
COOK           CLEAR     55  52  88 CALM      30.19S
WALKER         FAIR      58  56  94 CALM      30.20R
$$
MNZ012-019>021-037-310300-
   Northeast Minnesota

CITY           SKY/WX    TMP DP  RH WIND       PRES   REMARKS
DULUTH         CLEAR     63  52  67 NW5       30.17R
ELY            CLEAR     54  52  94 CALM      30.18R
HIBBING        CLEAR     54  50  86 NW3       30.18R
EVELETH        CLEAR     63  48  59 N3        30.19S
DULUTH HARBOR  CLEAR     72  54  53 NW3       30.16R
TWO HARBORS    CLEAR     63  55  77 NW3       30.15R
SILVER BAY     CLEAR     57  54  88 CALM      30.14S
GRAND MARAIS     N/A     58  53  84 NW5       30.12R
G MARAIS ARPRT CLEAR     52  46  82 CALM      30.17R
$$
MNZ029>031-032-039>041-046>048-054>057-064-310300-
   West Central Minnesota

CITY           SKY/WX    TMP DP  RH WIND       PRES   REMARKS
FERGUS FALLS   CLEAR     66  57  72 N3        30.21R
WHEATON        CLOUDY    72  57  60 CALM      30.21R
MORRIS         CLEAR     66  59  77 NE5       30.19R
ALEXANDRIA     CLEAR     68  57  68 NW3       30.22R
ELBOW LAKE     FAIR      68  58  69 NE3       30.20S
GLENWOOD       CLEAR     66  57  72 NW5       30.21R
APPLETON       CLOUDY    70  61  73 CALM      30.19R
BENSON         CLEAR     63  55  77 CALM      30.20R
ORTONVILLE     CLOUDY    70  57  64 CALM      30.19S
MADISON        CLOUDY    68  61  77 CALM      30.19S
WILLMAR        FAIR      68  61  77 CALM      30.20S
$$
MNZ033>034-036-042>043-049>051-058-059-310300-
   Central Minnesota

CITY           SKY/WX    TMP DP  RH WIND       PRES   REMARKS
ST CLOUD       CLEAR     62  61  96 CALM      30.18R
SAUK CENTRE    FAIR      64  60  84 CALM      30.20R
PAYNESVILLE    CLEAR     63  58  84 CALM      30.20R
AITKIN         CLEAR     57  54  88 CALM      30.18R
PINE RIVER     CLEAR     61  57  88 CALM      30.22R
BRAINERD       CLEAR     63  57  81 CALM      30.19R
STAPLES        CLEAR     63  55  77 CALM      30.20R
LONG PRAIRIE   FAIR      63  59  88 CALM      30.20R
LITTLE FALLS   CLEAR     61  55  82 CALM      30.19R
LITCHFIELD     CLEAR     70  59  68 CALM      30.19R
BUFFALO        CLEAR     66  58  75 CALM      30.19R
MAPLE LAKE     CLEAR     63  60  93 CALM      30.19R
HUTCHINSON     CLOUDY    64  61  89 CALM      30.20R
$$
MNZ037-044-045-052-053-310300-
   East Central Minnesota

CITY           SKY/WX    TMP DP  RH WIND       PRES   REMARKS
PRINCETON      CLEAR     63  57  82 CALM      30.18R
MORA           CLEAR     59  54  82 CALM      30.19R
CAMBRIDGE      CLEAR     63  54  72 CALM      30.16R
RUSH CITY      CLEAR     60  56  84 CALM      30.17R
MOOSE LAKE     PTCLDY    57  55  94 CALM      30.16R
HINCKLEY       FAIR      59  59 100 NW5       30.17R
CLOQUET        CLEAR     61  52  72 W5        30.18R
MCGREGOR       CLEAR     63  54  72 NW3       30.19R
$$
MNZ071>073-080-081-089-090-097-098-310300-
   Southwest Minnesota

CITY           SKY/WX    TMP DP  RH WIND       PRES   REMARKS
MONTEVIDEO     CLEAR     66  59  77 CALM      30.21R
GRANITE FALLS  CLEAR     66  62  87 CALM      30.20S
CANBY          CLOUDY    66  61  84 CALM      30.20S
MARSHALL       CLEAR     70  60  70 NE3       30.20R
REDWOOD FALLS  CLEAR     69  58  67 NW6       30.18R
OLIVIA         CLEAR     70  61  73 CALM      30.18S
WINDOM         CLEAR     64  61  88 N5        30.21R
WORTHINGTON    CLOUDY    67  63  87 N7        30.21R
JACKSON        CLOUDY    64  61  88 N3        30.21R
TRACY          CLEAR     68  62  80 CALM      30.21R
SLAYTON        CLEAR     64  61  88 CALM      30.22R
$$
MNZ065>067-074>077-082>085-091>093-310300-
   South Central Minnesota

CITY           SKY/WX    TMP DP  RH WIND       PRES   REMARKS
NEW ULM        CLEAR     68  61  77 CALM      30.19R
ST JAMES       CLOUDY    64  61  88 CALM      30.20R
FAIRMONT       PTCLDY    66  63  90 N5        30.19R
GLENCOE        CLEAR     65  63  93 CALM      30.18R
FARIBAULT      CLOUDY    64  59  82 NW3       30.18R
OWATONNA       CLOUDY    64  59  82 CALM      30.18R
WASECA         CLOUDY    61  57  88 NW5       30.19R
ALBERT LEA     PTCLDY    64  59  82 N5          N/A
$$
MNZ078>079-086>088-094>096-310300-
   Southeast Minnesota

CITY           SKY/WX    TMP DP  RH WIND       PRES   REMARKS
ROCHESTER      CLOUDY    66  59  78 N7        30.16R
RED WING       CLEAR     64  61  88 CALM      30.14R
STANTON        CLEAR     64  61  88 CALM      30.15R
DODGE CENTER   PTCLDY    63  57  82 N3        30.17R
WINONA         CLEAR     70  63  78 NW3       30.13R
AUSTIN         PTCLDY    64  59  82 NW5       30.17R
PRESTON        CLOUDY    65  58  79 N5        30.16R
$$
ABBREVIATIONS USED IN REMARKS
   TC - TEMPERATURES IN CELSIUS
  WCI - WIND CHILL INDEX
   HX - HEAT INDEX
  VSB - VISIBILITY
$$




USA.gov is the U.S. government's official web portal to all federal, state and local government web resources and services.